EW3994 Weather Reports


Display with metric or nautical units.
time (UTC)temp
F
wind
direction
speed
MPH
gust
MPH
rain 1hr
in
rain 24hr
in
rain mn
in
humidity
%
barometer
mb
20260901120040 59 281 1.0 3.0 0.00 0.09 0.09 63 1016.4
20260901115140 59 302 1.0 3.0 0.00 0.09 0.09 63 1016.4
20260901114241 59 295 1.0 3.0 0.00 0.09 0.09 63 1016.2
20260901113340 59 291 1.0 3.0 0.00 0.09 0.09 63 1016.1
20260901112440 59 306 1.0 4.0 0.00 0.09 0.09 63 1016.0
20260901111540 59 293 2.0 6.0 0.00 0.09 0.09 63 1016.2
20260901105740 59 283 2.0 6.0 0.00 0.09 0.09 63 1016.0
20260901104840 59 290 3.0 8.0 0.00 0.09 0.09 63 1016.0
20260901103040 59 289 4.0 10.0 0.00 0.09 0.09 64 1015.9
20260901102140 59 295 4.0 8.0 0.00 0.09 0.09 64 1015.9
20260901101240 59 299 5.0 8.0 0.00 0.09 0.09 64 1015.8
20260901100340 58 308 3.0 11.0 0.00 0.09 0.09 64 1015.7
20260901095440 58 321 3.0 8.0 0.00 0.09 0.09 64 1015.5
20260901094540 58 328 5.0 10.0 0.00 0.09 0.09 64 1015.4
20260901093639 58 338 5.0 10.0 0.00 0.09 0.09 64 1015.3
20260901092739 58 331 2.0 5.0 0.00 0.09 0.09 64 1014.9
20260901091839 58 5 3.0 6.0 0.00 0.09 0.09 64 1014.7
20260901090940 58 17 4.0 9.0 0.00 0.09 0.09 64 1014.6
20260901090039 58 17 4.0 9.0 0.00 0.09 0.09 64 1014.4
20260901085139 59 10 4.0 9.0 0.00 0.09 0.09 64 1014.5
20260901084240 59 13 5.0 12.0 0.00 0.09 0.09 64 1014.5
20260901081542 59 14 5.0 10.0 0.00 0.09 0.09 64 1014.3
20260901080639 59 21 6.0 11.0 0.00 0.09 0.09 64 1014.3
20260901075739 59 21 6.0 12.0 0.02 0.09 0.09 64 1014.3
20260901074840 59 8 3.0 11.0 0.02 0.09 0.09 64 1014.5
20260901073939 59 35 5.0 9.0 0.03 0.09 0.09 64 1014.0
20260901072139 59 55 8.0 14.0 0.06 0.09 0.09 64 1013.9
20260901071239 59 56 10.0 16.0 0.07 0.09 0.09 63 1013.9
20260901070339 60 52 7.0 15.0 0.08 0.08 0.08 62 1014.1
20260901064541 60 349 2.0 4.0 0.06 0.06 0.06 61 1015.6
20260901063639 61 300 1.0 4.0 0.05 0.05 0.05 61 1015.9
20260901062739 61 276 3.0 6.0 0.03 0.03 0.03 59 1016.1
20260901061839 62 263 4.0 9.0 0.02 0.02 0.02 57 1015.8
20260901060939 63 248 7.0 14.0 0.01 0.01 0.01 56 1015.9
20260901055139 66 260 13.0 20.0 0.00 0.00 0.00 48 1015.9
20260901054239 67 286 10.0 23.0 0.00 0.00 0.00 44 1015.4
20260901053339 68 290 8.0 14.0 0.00 0.00 0.00 41 1015.1
20260901052439 68 292 6.0 11.0 0.00 0.00 0.00 42 1014.8
20260901051539 68 304 5.0 15.0 0.00 0.00 0.00 42 1014.7
20260901050639 68 307 5.0 11.0 0.00 0.00 0.00 44 1014.7
20260901045739 68 332 7.0 14.0 0.00 0.00 0.00 44 1014.7
20260901044839 68 300 5.0 10.0 0.00 0.00 0.00 44 1014.6
20260901043939 68 328 5.0 11.0 0.00 0.00 0.00 44 1014.6
20260901043039 69 339 6.0 12.0 0.00 0.00 0.00 42 1014.5
20260901042139 69 332 4.0 10.0 0.00 0.00 0.00 41 1014.6
20260901041239 69 343 6.0 13.0 0.00 0.00 0.00 39 1014.7
20260901040339 69 343 8.0 15.0 0.00 0.00 0.00 39 1014.6
20260901035440 70 343 5.0 13.0 0.00 0.00 0.00 39 1014.9
20260901033639 70 341 8.0 17.0 0.00 0.00 0.00 37 1015.0
20260901032739 69 348 7.0 14.0 0.00 0.00 0.00 38 1015.2
20260901030939 69 345 10.0 19.0 0.00 0.00 0.00 38 1015.7
20260901030038 69 336 9.0 18.0 0.00 0.00 0.00 38 1015.9
20260901025139 72 343 11.0 23.0 0.00 0.00 0.00 34 1016.0
20260901024239 72 351 10.0 21.0 0.00 0.00 0.00 32 1015.8
20260901023339 72 1 12.0 20.0 0.00 0.00 0.00 33 1015.9
20260901022441 72 6 11.0 18.0 0.00 0.00 0.00 34 1016.1
20260901021539 71 356 11.0 19.0 0.00 0.00 0.00 37 1016.5
20260901020639 68 357 8.0 15.0 0.00 0.00 0.00 38 1016.8
20260901014838 66 358 8.0 16.0 0.00 0.00 0.00 40 1017.0
20260901013938 65 5 8.0 15.0 0.00 0.00 0.00 42 1016.9
20260901013038 65 12 11.0 20.0 0.00 0.00 0.00 43 1016.6
20260901012138 66 5 10.0 17.0 0.00 0.00 0.00 40 1016.9
20260901010340 65 348 9.0 16.0 0.00 0.00 0.00 39 1017.4
20260901005439 65 353 9.0 16.0 0.00 0.00 0.00 39 1017.6
20260901004538 65 354 9.0 18.0 0.00 0.00 0.00 40 1017.5
20260901003639 65 359 9.0 16.0 0.00 0.00 0.00 40 1017.4
20260901002739 65 359 10.0 20.0 0.00 0.00 0.00 39 1017.4
20260901001838 66 2 9.0 17.0 0.00 0.00 0.00 38 1017.5
20260901000940 66 357 9.0 16.0 0.00 0.00 0.00 38 1017.6
20260831235139 67 8 8.0 16.0 0.00 0.00 0.00 37 1017.9
20260831233338 65 10 8.0 15.0 0.00 0.00 0.00 38 1017.9
20260831232438 64 7 10.0 22.0 0.00 0.00 0.00 39 1017.9
20260831230638 64 5 10.0 17.0 0.00 0.00 0.00 38 1018.0
20260831225739 64 6 10.0 17.0 0.00 0.00 0.00 38 1018.0
20260831224839 63 5 9.0 20.0 0.00 0.00 0.00 39 1018.0
20260831223938 62 8 8.0 15.0 0.00 0.00 0.00 41 1018.0
20260831222138 61 6 8.0 15.0 0.00 0.00 0.00 43 1018.4
20260831221238 60 7 9.0 14.0 0.00 0.00 0.00 43 1018.4
20260831220338 60 10 9.0 15.0 0.00 0.00 0.00 44 1018.5
20260831214538 59 15 8.0 15.0 0.00 0.00 0.00 45 1018.5
20260831213638 58 12 8.0 14.0 0.00 0.00 0.00 45 1018.3
20260831212738 58 3 9.0 17.0 0.00 0.00 0.00 45 1018.4
20260831211838 58 19 8.0 19.0 0.00 0.00 0.00 46 1018.3
20260831210938 57 19 7.0 13.0 0.00 0.00 0.00 46 1018.4
20260831205139 57 11 7.0 14.0 0.00 0.00 0.00 46 1018.4
20260831203338 57 20 7.0 12.0 0.00 0.00 0.00 46 1018.6
20260831202438 57 21 5.0 12.0 0.00 0.00 0.00 46 1018.5
20260831201537 57 25 5.0 10.0 0.00 0.00 0.00 46 1018.5
20260831200638 57 20 7.0 11.0 0.00 0.00 0.00 46 1018.6
20260831195738 57 19 6.0 12.0 0.00 0.00 0.00 46 1018.7
20260831194838 58 22 6.0 11.0 0.00 0.00 0.00 46 1018.8
20260831193939 58 25 7.0 13.0 0.00 0.00 0.00 45 1018.8
20260831192138 58 30 7.0 11.0 0.00 0.00 0.00 45 1018.8
20260831191238 58 21 7.0 14.0 0.00 0.00 0.00 45 1018.8
20260831190338 58 17 8.0 13.0 0.00 0.00 0.00 45 1018.9
20260831185439 58 18 7.0 12.0 0.00 0.00 0.00 44 1018.9
20260831184537 58 20 7.0 12.0 0.00 0.00 0.00 44 1019.0
20260831183638 58 19 8.0 14.0 0.00 0.00 0.00 44 1019.0
20260831182738 58 17 7.0 12.0 0.00 0.00 0.00 43 1019.2
20260831181838 58 15 8.0 16.0 0.00 0.00 0.00 43 1019.4
20260831180937 58 10 8.0 15.0 0.00 0.00 0.00 43 1019.5
20260831175137 58 17 8.0 13.0 0.00 0.00 0.00 43 1019.6
20260831173338 59 18 7.0 13.0 0.00 0.00 0.00 42 1019.7
20260831172438 59 17 7.0 14.0 0.00 0.00 0.00 42 1019.8
20260831171537 59 20 7.0 13.0 0.00 0.00 0.00 42 1019.9
20260831170637 59 15 7.0 12.0 0.00 0.00 0.00 42 1020.1
20260831165737 59 18 6.0 12.0 0.00 0.00 0.00 42 1020.3
20260831164837 59 16 6.0 11.0 0.00 0.00 0.00 42 1020.2
20260831163937 59 18 7.0 13.0 0.00 0.00 0.00 42 1020.4
20260831161237 59 23 6.0 12.0 0.00 0.00 0.00 42 1020.8
20260831155437 59 26 7.0 13.0 0.00 0.00 0.00 42 1021.1
20260831154537 58 29 7.0 12.0 0.00 0.00 0.00 42 1021.2
20260831153637 58 24 6.0 13.0 0.00 0.00 0.00 42 1021.5
20260831151837 58 23 5.0 10.0 0.00 0.00 0.00 43 1021.7
20260831150937 58 29 6.0 10.0 0.00 0.00 0.00 43 1021.6
20260831150037 58 30 5.0 10.0 0.00 0.00 0.00 43 1021.9
20260831145137 58 34 5.0 9.0 0.00 0.00 0.00 43 1022.0
20260831144239 58 48 5.0 9.0 0.00 0.00 0.00 43 1022.0
20260831143337 57 56 4.0 7.0 0.00 0.00 0.00 43 1022.2
20260831141537 57 54 3.0 5.0 0.00 0.00 0.00 44 1022.4
20260831140637 56 54 2.0 5.0 0.00 0.00 0.00 45 1022.5
20260831135737 56 72 2.0 4.0 0.00 0.00 0.00 45 1022.6
20260831133937 56 85 1.0 3.0 0.00 0.00 0.00 46 1023.0
20260831132137 57 11 1.0 3.0 0.00 0.00 0.00 44 1023.4
20260831130337 58 22 2.0 4.0 0.00 0.00 0.00 42 1023.5
20260831125437 59 35 2.0 4.0 0.00 0.00 0.00 40 1023.5
20260831124537 60 43 3.0 8.0 0.00 0.00 0.00 39 1023.6
20260831123637 60 46 4.0 8.0 0.00 0.00 0.00 39 1023.6
20260831122738 61 48 5.0 11.0 0.00 0.00 0.00 38 1023.7
20260831121837 61 46 5.0 9.0 0.00 0.00 0.00 38 1023.7
20260831120937 61 53 6.0 12.0 0.00 0.00 0.00 39 1023.6